FW2249 Weather Reports


time (UTC)temp
C
wind
direction
speed
KPH
gust
KPH
rain 1hr
cm
rain 24hr
cm
rain mn
cm
humidity
%
barometer
mb
20260503181143 22 276 4.8 16.1 0.00 0.00 0.00 58 1013.1
20260503180122 22 271 6.4 19.3 0.00 0.00 0.00 57 1013.2
20260503175122 22 276 4.8 19.3 0.00 0.00 0.00 54 1013.2
20260503174123 24 292 1.6 9.7 0.00 0.00 0.00 50 1013.2
20260503173123 22 290 1.6 12.9 0.00 0.00 0.00 54 1013.2
20260503172122 23 279 3.2 12.9 0.00 0.00 0.00 54 1013.4
20260503171122 22 289 0.0 9.7 0.00 0.00 0.00 56 1013.5
20260503170122 22 277 1.6 12.9 0.00 0.00 0.00 56 1013.6
20260503160122 24 23 0.0 3.2 0.00 0.00 0.00 52 1014.0
20260503150122 17 338 0.0 0.0 0.00 0.00 0.00 71 1014.1
20260503140122 12 225 0.0 0.0 0.00 0.00 0.00 90 1014.0
20260503131122 10 113 0.0 0.0 0.00 0.00 0.00 96 1013.7
20260503130122 10 270 0.0 0.0 0.00 0.00 0.00 96 1013.7
20260503120123 10 180 0.0 0.0 0.00 0.00 0.00 96 1013.7
20260503110122 10 203 0.0 0.0 0.00 0.00 0.00 96 1013.8
20260503100122 11 135 0.0 0.0 0.00 0.00 0.00 96 1013.9
20260503090122 11 338 0.0 0.0 0.00 0.00 0.00 96 1013.6
20260503081123 12 338 0.0 0.0 0.00 0.00 0.00 95 1013.5
20260503080122 12 293 0.0 0.0 0.00 0.00 0.00 93 1013.4
20260503072122 13 315 0.0 0.0 0.00 0.00 0.00 92 1013.4
20260503071122 13 338 0.0 0.0 0.00 0.00 0.00 92 1013.2
20260503070122 13 270 0.0 0.0 0.00 0.00 0.00 92 1013.1
20260503060122 14 113 0.0 0.0 0.00 0.00 0.00 87 1012.9
20260503054122 15 158 0.0 0.0 0.00 0.00 0.00 87 1012.8
20260503053122 15 158 0.0 0.0 0.00 0.00 0.00 85 1012.9
20260503052122 14 113 0.0 0.0 0.00 0.00 0.00 86 1012.7
20260503051122 14 68 0.0 0.0 0.00 0.00 0.00 85 1012.8
20260503050123 14 68 0.0 0.0 0.00 0.00 0.00 84 1012.7
20260503045122 15 90 0.0 0.0 0.00 0.00 0.00 83 1012.7
20260503044122 15 315 0.0 0.0 0.00 0.00 0.00 80 1012.7
20260503043122 16 293 0.0 0.0 0.00 0.00 0.00 78 1012.6
20260503042123 16 270 0.0 0.0 0.00 0.00 0.00 76 1012.5
20260503041123 16 23 0.0 0.0 0.00 0.00 0.00 74 1012.4
20260503040122 17 315 0.0 0.0 0.00 0.00 0.00 73 1012.2
20260503035122 17 248 0.0 0.0 0.00 0.00 0.00 72 1012.2
20260503034122 17 315 0.0 0.0 0.00 0.00 0.00 70 1012.2
20260503033123 18 225 0.0 0.0 0.00 0.00 0.00 68 1012.0
20260503032122 19 293 0.0 0.0 0.00 0.00 0.00 66 1012.2
20260503031122 20 293 0.0 0.0 0.00 0.00 0.00 63 1012.0
20260503030123 21 270 0.0 0.0 0.00 0.00 0.00 60 1012.0
20260503025122 21 315 0.0 0.0 0.00 0.00 0.00 60 1012.0
20260503024143 21 286 1.6 11.3 0.00 0.00 0.00 58 1011.9
20260503023123 22 293 0.0 0.0 0.00 0.00 0.00 57 1011.9
20260503022123 22 270 0.0 0.0 0.00 0.00 0.00 56 1012.1
20260503021122 22 360 0.0 0.0 0.00 0.00 0.00 56 1012.0
20260503020122 22 270 0.0 0.0 0.00 0.00 0.00 56 1012.0
20260503015123 23 293 0.0 0.0 0.00 0.00 0.00 52 1012.0
20260503014122 23 337 0.0 6.4 0.00 0.00 0.00 53 1012.2
20260503013123 23 360 0.0 0.0 0.00 0.00 0.00 52 1012.2
20260503012122 23 325 0.0 4.8 0.00 0.00 0.00 52 1012.2
20260503011122 24 259 0.0 3.2 0.00 0.00 0.00 52 1012.2
20260503010122 24 314 0.0 6.4 0.00 0.00 0.00 52 1012.4
20260503005123 23 270 0.0 0.0 0.00 0.00 0.00 55 1012.4
20260503004122 23 323 0.0 11.3 0.00 0.00 0.00 55 1012.5
20260503003122 25 293 0.0 0.0 0.00 0.00 0.00 51 1012.6
20260503002122 24 289 1.6 16.1 0.00 0.00 0.00 51 1012.8
20260503001122 25 225 1.6 22.5 0.00 0.00 0.00 50 1013.0
20260503000122 25 243 1.6 17.7 0.00 0.00 0.00 50 1013.1
20260502235122 25 209 0.0 24.1 0.00 0.00 0.00 50 1013.1
20260502234122 25 294 1.6 16.1 0.00 0.00 0.00 50 1013.1
20260502233123 25 270 0.0 8.0 0.00 0.00 0.00 51 1013.2
20260502232122 25 270 0.0 6.4 0.00 0.00 0.00 51 1013.5
20260502231122 24 272 1.6 29.0 0.00 0.00 0.00 53 1013.5
20260502230123 23 252 1.6 14.5 0.00 0.00 0.00 54 1013.7
20260502225122 23 249 3.2 30.6 0.00 0.00 0.00 54 1013.7
20260502224122 25 266 3.2 16.1 0.00 0.00 0.00 53 1014.0
20260502223122 23 244 0.0 6.4 0.00 0.00 0.00 54 1014.2
20260502222122 23 203 0.0 0.0 0.00 0.00 0.00 55 1014.2
20260502221122 23 252 1.6 16.1 0.00 0.00 0.00 56 1014.5
20260502220122 24 293 0.0 0.0 0.00 0.00 0.00 56 1014.6
20260502215122 23 293 0.0 0.0 0.00 0.00 0.00 58 1014.6
20260502214122 22 202 4.8 24.1 0.00 0.00 0.00 58 1014.7
20260502213122 22 212 4.8 27.4 0.00 0.00 0.00 61 1014.9
20260502212123 21 224 0.0 4.8 0.00 0.00 0.00 61 1015.2
20260502211124 22 235 1.6 20.9 0.00 0.00 0.00 60 1015.2
20260502210122 21 223 0.0 4.8 0.00 0.00 0.00 61 1015.4
20260502205122 21 266 1.6 27.4 0.00 0.00 0.00 61 1015.4
20260502204122 22 232 3.2 24.1 0.00 0.00 0.00 60 1015.5
20260502203122 22 231 1.6 16.1 0.00 0.00 0.00 61 1015.5
20260502202122 21 270 0.0 27.4 0.00 0.00 0.00 64 1015.8
20260502201143 21 235 1.6 29.0 0.00 0.00 0.00 61 1015.8
20260502200122 21 219 1.6 24.1 0.00 0.00 0.00 62 1016.0
20260502195122 21 238 0.0 4.8 0.00 0.00 0.00 61 1016.0
20260502194122 22 247 0.0 4.8 0.00 0.00 0.00 64 1016.0
20260502193122 20 297 0.0 8.0 0.00 0.00 0.00 67 1016.1
20260502192122 21 331 1.6 19.3 0.00 0.00 0.00 65 1016.0
20260502191122 23 270 0.0 4.8 0.00 0.00 0.00 60 1016.2
20260502190143 23 217 0.0 4.8 0.00 0.00 0.00 59 1016.0
20260502185122 23 197 0.0 6.4 0.00 0.00 0.00 60 1016.0
20260502184123 22 202 0.0 9.7 0.00 0.00 0.00 62 1016.2
20260502183122 22 201 0.0 16.1 0.00 0.00 0.00 61 1016.2
20260502182122 22 270 0.0 9.7 0.00 0.00 0.00 61 1016.2